SCP
0 0 0 0 0 0 0 0 0 0 -0 -0 -0 -0 -0 0 0 -0 0 -0 -0 -0 -0 -0 0 0 0 0 0 -0 0 -0 -0 -0 0 0 0 0 0 0 -0 0 0 -0 -0 -0 -0
0 0 0 0 0 0 0 0 0 0 -0 -0 -0 -0 -0 -0 0 -0 -0 -0 -0 -0 -0 0 0 0 0 0 0 0 0 0 -0 0 0 0 0 0 0 0 0 0 -0 -0 0 -0 -0
0 -0 0 0 0 0 0 0 0 0 0 -0 -0 -0 -0 -0 0 -0 -0 0 -0 -0 -0 0 0 0 0 0 0 0 0 0 0 0 0 0 0 0 0 0 0 0 -0 0 -0 0 0
-0 0 0 0 0 0 0 0 0 0 0 0 -0 -0 -0 0 0 -0 -0 0 -0 -0 -0 0 0 0 0 0 0 -0 0 0 0 0 0 0 0 0 0 0 0 0 -0 -0 -0 -0 0
0 0 0 0 0 0 0 0 0 0 0 0 0 0 -0 -0 0 -0 0 -0 -0 -0 -0 0 0 0 0 0 0 -0 0 0 0 0 0 0 0 0 0 0 0 -0 -0 -0 0 -0 0
0 0 0 0 0 0 0 0 0 0 0 -0 -0 -0 -0 -0 0 0 -0 0 -0 0 0 0 0 0 0 -0 0 -0 -0 0 0 0 0 0 0 0 -0 0 0 0 0 -0 -0 -0 -0
0 0 0 0 0 0 0 0 0 0 -0 -0 -0 -0 0 0 0 -0 -0 0 -0 0 0 0 0 0 0 0 0 0 0 0 0 0 0 0 0 0 -0 0 0 0 0 0 -0 -0 -0
0 0 0 0 0 0 0 0 0 0 0 0 0 -0 0 0 0 -0 -0 -0 -0 -0 0 0 0 0 0 -0 -0 0 -0 0 0 0 0 0 0 0 0 0 0 0 0 -0 -0 -0 -0
0 0 0 0 0 0 0 0 0 0 -0 0 -0 -0 0 -0 -0 -0 -0 -0 -0 -0 0 0 0 0 0 0 0 0 0 0 0 0 0 -0 -0 0 0 0 0 -0 -0 -0 -0 -0 -0
0 0 0 0 0 0 0 0 0 0 0 -0 -0 -0 -0 0 0 0 -0 -0 -0 -0 -0 -0 0 0 0 -0 0 -0 -0 0 0 0 -0 0 0 0 0 0 -0 -0 0 0 -0 -0 0
0 0 0 0 0 0 0 0 0 -0 -0 -0 -0 -0 -0 0 -0 -0 -0 0 0 0 -0 -0 -0 -0 0 -0 -0 0 -0 0 0 0 0 0 0 0 -0 -0 0 -0 0 -0 -0 -0 -0
0 0 0 0 0 0 0 -0 -0 -0 -0 -0 -0 -0 0 0 0 -0 0 0 0 0 -0 -0 -0 -0 -0 -0 -0 -0 0 0 0 0 0 0 0 0 0 0 0 0 -0 -0 -0 -0 -0
0 0 0 0 0 -0 -0 -0 -0 -0 -0 -0 -0 -0 0 -0 0 0 0 0 0 -0 -0 -0 -0 -0 -0 -0 0 -0 -0 0 0 0 0 0 -0 -0 0 -0 0 -0 -0 0 0 0 -0
0 0 0 0 -0 -0 -0 -0 -0 -0 -0 -0 -0 0 -0 0 0 0 0 0 -0 -0 -0 -0 -0 -0 -0 -0 -0 -0 -0 -0 -0 -0 -0 -0 0 -0 0 -0 -0 0 -0 -0 0 -0 0
0 0 -0 -0 -0 -0 -0 -0 -0 -0 -0 -0 -0 0 0 0 0 0 0 -0 -0 -0 -0 -0 -0 -0 -0 -0 -0 0 -0 -0 -0 -0 -0 -0 -0 0 0 0 -0 0 0 -0 -0 0 0
-0 -0 -0 -0 -0 -0 -0 -0 -0 -0 -0 -0 -0 -0 0 0 0 0 0 -0 0 0 0 0 -0 -0 -0 -0 0 0 0 -0 0 -0 0 -0 0 -0 -0 0 -0 -0 -0 -0 0 0 -0
-0 -0 -0 -0 -0 -0 -0 -0 -0 -0 -0 -0 -0 -0 0 0 0 0 0 0 0 0 0 0 0 -0 -0 -0 -0 -0 0 -0 -0 -0 0 0 0 0 0 -0 -0 -0 -0 -0 -0 -0 -0
-0 -0 -0 -0 -0 -0 -0 -0 -0 -0 -0 -0 -0 0 0 0 -0 0 0 0 0 0 0 0 0 -0 0 0 0 0 0 0 0 0 0 -0 0 0 -0 0 0 0 0 -0 -0 -0 0
-0 -0 -0 -0 -0 -0 -0 -0 -0 -0 -0 -0 -0 0 0 0 0 -0 0 0 0 0 0 0 0 0 0 0 0 0 0 0 0 0 0 0 0 -0 0 0 0 0 -0 -0 0 -0 0
-0 -0 -0 -0 -0 -0 -0 -0 -0 -0 -0 -0 -0 0 0 0 0 0 -0 0 0 0 0 0 0 0 0 -0 0 0 0 0 0 0 0 0 0 -0 0 0 0 0 -0 0 -0 0 0
-0 -0 -0 -0 -0 -0 -0 -0 -0 -0 -0 -0 -0 -0 0 -0 -0 0 0 0 0 0 0 0 0 0 0 0 0 0 0 0 0 0 0 0 -0 -0 0 0 -0 -0 -0 0 0 0 -0
-0 -0 -0 -0 -0 -0 -0 -0 -0 -0 -0 -0 -0 -0 0 0 0 0 0 0 0 0 0 0 0 0 0 0 0 0 0 0 0 0 0 0 0 0 0 -0 -0 -0 -0 -0 0 0 0
-0 -0 -0 -0 -0 -0 -0 -0 -0 -0 -0 -0 -0 -0 -0 0 0 0 0 0 0 0 0 0 0 0 0 0 0 0 0 0 0 0 0 0 0 0 0 0 0 0 0 0 0 0 0
-0 -0 -0 -0 -0 -0 -0 -0 -0 -0 -0 -0 -0 -0 -0 0 0 0 0 0 0 0 0 0 0 0 0 0 0 0 0 0 0 0 0 0 0 0 0 0 0 -0 0 0 0 -0 0
-0 -0 -0 -0 -0 -0 -0 -0 -0 -0 -0 -0 -0 -0 -0 0 0 0 0 0 0 0 0 0 0 0 0 0 0 0 0 0 0 0 0 0 0 0 0 0 0 -0 0 0 0 0 0
-0 -0 -0 -0 -0 -0 -0 -0 -0 -0 -0 -0 -0 -0 -0 -0 -0 0 0 0 0 0 0 0 0 0 0 0 0 0 0 0 0 0 0 0 0 0 0 0 0 -0 0 0 0 0 0
-0 -0 -0 -0 -0 -0 -0 -0 -0 -0 -0 0 0 -0 -0 -0 0 0 0 0 0 0 0 0 0 0 0 0 0 0 0 0 0 0 0 0 0 0 0 0 0 0 0 0 0 0 0
-0 -0 -0 -0 -0 -0 -0 -0 -0 -0 -0 0 -0 0 -0 -0 0 0 0 0 0 0 0 0 0 0 0 0 0 0 0 0 0 0 0 0 0 0 0 0 0 0 0 1 1 1 1
-0 -0 -0 -0 -0 -0 -0 -0 -0 -0 -0 0 -0 -0 -0 -0 0 0 0 0 0 0 0 0 0 0 0 0 0 0 0 0 0 0 0 0 0 0 0 1 0 0 0 0 1 1 0
Wind_Speed_500mb
32 32 32 32 32 32 31 31 29 28 27 27 27 26 24 20 13 12 6 3 6 10 16 19 21 17 15 13 8 13 16 27 30 20 21 20 21 13 12 9 9 10 12 10 11 7 23
33 33 33 34 34 32 31 30 30 28 27 27 26 25 23 21 12 11 5 1 4 10 15 20 21 19 11 11 4 14 16 23 19 19 20 14 10 12 18 3 16 5 5 7 18 12 16
33 33 33 34 34 34 33 31 30 29 27 26 25 23 21 19 12 8 4 2 5 10 16 20 20 20 11 11 14 19 21 19 14 11 11 8 12 18 17 7 4 9 22 24 30 16 15
33 33 34 35 34 34 34 33 32 31 28 25 24 22 19 17 13 5 5 5 7 10 16 19 20 15 7 9 23 22 21 14 14 6 8 8 11 19 22 8 16 26 29 30 28 19 11
35 35 35 36 36 36 35 34 33 32 30 26 23 20 17 14 11 2 5 7 9 12 18 22 15 8 20 19 27 25 18 14 15 17 16 18 18 27 22 28 23 24 29 34 24 17 12
36 36 36 37 37 37 37 34 34 34 33 27 24 20 15 10 7 3 7 11 14 18 20 19 10 13 15 26 28 17 11 10 15 19 19 22 21 20 26 16 8 5 8 15 23 21 23
37 38 38 38 39 38 37 36 35 35 34 29 25 20 15 8 6 6 15 16 7 7 21 13 31 12 46 32 28 25 17 11 8 8 22 26 21 18 27 15 12 6 10 4 15 16 17
40 40 40 40 39 39 39 37 37 35 35 31 25 21 16 9 10 10 22 15 13 10 24 16 19 7 32 35 39 20 20 14 17 25 33 26 17 8 13 12 5 7 14 13 14 16 23
41 42 42 42 42 43 42 40 40 38 36 31 25 20 15 11 11 19 24 17 7 7 21 32 26 27 41 20 27 16 17 24 26 29 29 16 54 17 10 15 15 5 6 14 17 26 29
44 44 44 44 45 46 45 43 42 40 38 32 24 18 13 5 1 9 19 17 15 9 11 36 31 26 34 31 14 36 28 30 21 13 44 9 6 9 17 12 19 24 7 8 13 22 12
45 45 46 46 47 48 47 46 45 43 38 32 24 17 12 14 12 9 8 6 11 7 12 42 44 38 34 34 46 25 36 37 22 37 15 34 16 16 18 17 14 14 5 13 18 24 17
47 48 48 49 49 50 51 50 49 44 40 30 22 16 15 15 21 18 8 5 10 16 10 24 25 32 36 45 30 49 19 39 34 32 38 46 44 28 21 12 9 9 19 22 22 16 14
49 50 52 53 53 54 55 55 52 46 39 27 21 17 21 22 8 11 13 12 17 17 27 30 38 42 41 37 29 40 36 22 31 27 36 32 32 34 19 24 15 18 28 6 12 3 19
51 54 55 57 57 56 58 61 56 48 35 25 17 17 24 33 19 20 16 22 29 19 23 30 34 41 37 37 37 41 47 37 53 54 29 25 13 30 20 23 17 21 32 14 10 12 6
54 57 58 59 59 60 62 63 59 47 34 14 8 14 15 20 23 26 28 23 15 15 21 26 34 29 32 32 22 38 43 44 50 49 42 22 22 12 7 16 22 11 15 24 26 5 9
56 59 61 61 61 62 65 66 60 44 21 11 24 18 15 19 23 16 19 34 7 20 9 12 25 24 27 33 25 32 33 33 33 34 33 31 9 16 26 17 26 32 22 11 11 7 12
58 60 62 63 63 65 67 68 57 36 6 26 25 21 4 23 22 21 20 8 7 9 10 14 15 25 32 34 32 28 19 22 27 34 30 35 21 8 17 28 6 18 24 23 17 22 19
59 61 64 66 67 68 68 69 52 21 19 20 13 8 14 27 21 30 24 4 7 5 7 9 14 20 5 3 20 24 31 17 8 26 41 34 21 25 31 13 17 22 14 32 15 18 27
60 63 66 69 72 74 73 71 51 18 15 9 6 15 14 22 14 19 17 11 10 9 4 6 8 10 10 9 7 15 1 22 5 15 16 28 23 26 25 25 24 20 26 30 12 23 11
60 64 68 71 75 79 79 75 58 22 8 4 12 9 16 27 31 28 24 25 19 7 3 11 16 10 14 17 7 5 15 8 10 14 16 14 27 38 20 21 30 19 35 15 29 8 18
60 63 67 72 77 82 84 80 75 34 7 5 8 11 8 19 17 20 2 4 16 9 4 5 7 12 18 20 17 13 7 17 17 9 10 19 34 35 34 36 34 37 57 12 21 26 8
58 61 65 70 75 80 84 86 79 58 28 18 15 14 7 9 8 16 8 4 14 8 12 11 13 17 13 16 17 18 14 12 11 18 24 24 29 20 30 30 34 35 27 30 14 17 23
58 60 62 66 72 78 81 82 82 77 52 24 19 12 14 6 5 17 12 12 8 10 6 12 15 19 14 14 24 28 26 26 26 18 29 25 21 27 30 31 22 29 33 28 16 21 19
59 60 62 64 67 72 76 78 77 74 63 39 29 14 15 5 11 17 13 7 11 11 15 16 15 15 14 31 38 41 36 33 27 26 26 28 30 20 25 32 9 51 20 25 15 39 17
61 61 63 64 66 68 71 72 73 67 61 39 41 17 13 7 9 6 17 15 16 9 15 13 13 16 29 32 24 30 27 34 33 33 31 28 25 26 23 29 41 51 18 23 29 15 12
64 64 64 64 65 66 68 69 67 66 58 31 39 27 8 18 14 12 20 7 14 14 18 8 14 24 19 15 21 32 30 37 34 37 40 34 35 25 30 36 36 40 22 36 11 12 10
65 66 67 66 66 66 66 67 65 61 56 37 29 33 8 13 9 16 8 14 14 16 14 5 20 15 14 14 23 28 33 37 40 45 33 25 23 31 28 32 37 25 19 16 26 6 13
61 64 66 66 64 66 69 66 61 56 52 44 20 33 12 11 4 8 8 11 15 10 11 23 16 8 15 14 17 20 24 24 21 34 30 33 27 27 30 39 44 26 9 14 19 23 18
61 60 64 66 65 67 71 69 60 52 43 37 17 27 13 5 11 7 5 3 1 5 14 17 13 7 12 9 4 9 13 16 18 24 23 22 16 15 16 11 20 24 24 22 20 19 17
Wind_Direction_500mb
6 5 3 2 3 1 360 358 358 356 355 354 356 356 358 358 354 350 331 274 223 194 189 180 187 183 173 225 60 126 159 159 162 141 213 230 238 272 49 309 186 322 89 137 108 198 107
1 360 358 356 357 355 355 354 351 352 349 349 350 353 355 359 353 358 347 246 198 172 169 172 179 177 199 229 104 114 149 159 174 181 213 249 15 357 276 336 314 51 146 143 150 131 111
359 356 353 351 349 349 350 351 347 346 344 342 343 347 352 357 355 2 20 151 159 153 157 166 171 177 244 83 160 176 156 153 175 204 194 236 299 301 311 204 82 212 163 153 148 174 148
356 353 351 348 347 348 347 346 344 339 338 338 338 340 347 351 359 8 47 142 140 139 147 152 161 169 73 124 147 152 165 170 187 209 262 281 304 291 264 327 188 212 208 147 139 164 143
357 355 353 350 349 349 349 345 340 335 333 336 333 334 340 343 357 41 77 127 133 132 138 143 139 202 126 143 155 160 175 197 227 250 267 276 287 262 257 235 190 149 264 134 125 192 149
359 357 355 353 350 348 346 344 337 331 329 332 328 324 328 333 341 161 121 112 122 124 132 141 182 225 179 184 168 166 186 229 232 276 257 241 241 244 227 28 262 29 94 88 127 161 221
0 358 356 354 350 346 342 341 334 328 326 326 324 319 315 315 294 198 160 129 128 169 203 229 186 255 151 144 146 161 169 166 207 192 235 207 270 5 296 5 352 292 283 170 125 142 204
1 359 357 354 349 345 343 339 333 329 323 323 322 314 304 291 262 225 203 216 3 27 176 206 136 143 151 153 144 147 174 210 206 174 230 256 351 228 354 305 237 206 206 155 123 171 240
1 0 358 356 352 348 345 340 335 329 322 321 318 310 297 286 260 247 219 218 287 290 223 177 191 178 171 168 162 127 193 212 258 207 230 66 263 311 281 249 226 190 337 146 163 193 222
3 2 360 357 353 349 345 341 336 329 321 319 312 303 283 274 80 203 227 241 238 284 258 158 185 194 179 199 148 144 180 209 195 256 276 168 306 325 294 326 337 101 27 247 209 214 122
6 4 1 358 353 348 344 341 336 328 320 315 303 291 251 205 183 199 167 205 214 229 258 149 178 188 186 206 143 162 208 223 243 252 279 277 242 336 304 14 343 56 268 250 233 257 233
7 6 4 359 353 348 344 341 336 330 321 312 294 276 231 219 221 193 218 218 176 232 143 148 143 179 179 216 177 125 157 217 251 268 273 270 276 274 272 312 299 309 236 228 223 244 33
9 7 3 0 356 351 347 342 338 332 323 305 286 252 217 192 172 205 202 210 230 246 132 148 165 177 191 193 189 168 182 246 246 222 241 248 239 233 211 255 189 238 240 241 218 165 235
10 7 4 1 357 354 348 343 340 334 322 304 274 229 207 192 204 185 190 230 245 103 186 146 172 172 196 186 202 182 181 188 234 250 275 269 198 196 165 246 276 201 284 262 292 343 153
11 8 5 2 359 357 352 344 343 337 326 304 204 186 171 196 199 182 216 230 286 189 117 160 173 185 197 205 204 200 211 205 218 212 245 242 172 226 207 250 249 235 252 308 295 207 232
12 10 7 5 3 1 355 348 347 340 337 150 129 148 150 180 161 175 235 257 104 40 324 247 178 197 194 185 206 193 204 223 232 214 227 260 236 196 157 228 244 270 341 266 333 358 11
13 12 9 9 8 7 3 354 353 351 80 146 138 185 169 171 172 216 235 216 110 124 286 268 247 183 217 176 193 215 217 215 212 216 201 244 253 171 184 212 306 200 230 226 172 176 242
16 15 13 12 13 12 10 2 0 19 129 148 250 150 163 158 199 218 235 82 44 292 185 296 313 324 345 174 192 221 220 247 60 240 206 217 241 233 221 172 200 309 321 279 243 312 342
19 18 16 16 16 17 16 11 10 32 164 199 250 108 167 175 229 197 237 213 264 280 70 305 294 308 22 307 262 236 220 61 109 241 206 212 234 257 247 208 182 233 255 268 282 272 259
21 19 19 19 19 19 21 19 17 32 134 209 275 148 154 212 270 277 201 223 181 181 270 306 315 262 282 218 219 178 207 117 192 245 358 302 234 247 266 40 360 324 267 266 292 309 23
21 20 20 21 20 20 22 24 25 25 89 63 321 36 26 197 216 256 345 40 243 188 233 289 213 342 321 291 197 113 337 144 185 149 231 246 252 267 273 122 234 251 244 246 231 303 41
22 21 21 21 21 21 22 23 27 31 62 44 6 339 321 18 152 251 141 130 335 76 318 126 343 337 343 38 6 16 332 287 154 175 230 233 269 286 287 297 203 239 271 219 234 276 287
22 19 19 19 20 21 22 23 25 29 47 44 15 352 306 131 255 254 51 44 23 331 135 49 339 311 259 43 323 306 298 294 290 288 291 242 237 257 271 280 290 231 251 236 271 248 285
21 18 17 17 18 20 22 23 24 26 31 35 16 346 303 90 7 19 2 326 338 350 319 332 340 326 17 320 301 264 257 259 258 262 252 273 283 271 272 276 141 280 71 1 127 257 339
19 18 16 15 15 15 17 20 21 23 23 38 17 29 352 350 338 108 351 338 294 257 262 312 329 312 311 301 280 266 242 222 231 239 244 237 255 275 272 274 282 213 202 223 241 97 48
18 16 14 14 13 13 12 13 15 17 19 31 15 19 356 313 56 346 321 338 332 334 277 209 315 313 301 277 270 259 256 269 263 232 207 240 244 243 254 265 239 268 75 354 315 252 47
18 16 13 12 11 9 9 7 8 9 13 19 4 15 8 314 39 0 6 341 328 300 282 291 342 310 262 265 253 253 256 252 253 261 253 221 235 258 243 255 269 29 80 200 227 116 102
12 10 8 7 6 4 3 2 2 4 5 13 5 8 31 322 50 6 352 336 321 328 317 3 284 198 275 269 259 268 257 262 280 273 272 270 276 249 238 255 248 10 291 306 96 106 90
4 5 3 2 2 360 359 360 359 358 0 3 353 349 356 322 320 288 265 276 271 318 323 316 321 293 356 289 280 307 280 267 273 269 250 256 302 318 328 21 46 39 55 58 68 92 87
Wind_Speed_850mb
32 32 32 32 32 32 31 31 29 28 27 27 27 26 24 20 13 12 6 3 6 10 16 19 21 17 15 13 8 13 16 27 30 20 21 20 21 13 12 9 9 10 12 10 11 7 23
33 33 33 34 34 32 31 30 30 28 27 27 26 25 23 21 12 11 5 1 4 10 15 20 21 19 11 11 4 14 16 23 19 19 20 14 10 12 18 3 16 5 5 7 18 12 16
33 33 33 34 34 34 33 31 30 29 27 26 25 23 21 19 12 8 4 2 5 10 16 20 20 20 11 11 14 19 21 19 14 11 11 8 12 18 17 7 4 9 22 24 30 16 15
33 33 34 35 34 34 34 33 32 31 28 25 24 22 19 17 13 5 5 5 7 10 16 19 20 15 7 9 23 22 21 14 14 6 8 8 11 19 22 8 16 26 29 30 28 19 11
35 35 35 36 36 36 35 34 33 32 30 26 23 20 17 14 11 2 5 7 9 12 18 22 15 8 20 19 27 25 18 14 15 17 16 18 18 27 22 28 23 24 29 34 24 17 12
36 36 36 37 37 37 37 34 34 34 33 27 24 20 15 10 7 3 7 11 14 18 20 19 10 13 15 26 28 17 11 10 15 19 19 22 21 20 26 16 8 5 8 15 23 21 23
37 38 38 38 39 38 37 36 35 35 34 29 25 20 15 8 6 6 15 16 7 7 21 13 31 12 46 32 28 25 17 11 8 8 22 26 21 18 27 15 12 6 10 4 15 16 17
40 40 40 40 39 39 39 37 37 35 35 31 25 21 16 9 10 10 22 15 13 10 24 16 19 7 32 35 39 20 20 14 17 25 33 26 17 8 13 12 5 7 14 13 14 16 23
41 42 42 42 42 43 42 40 40 38 36 31 25 20 15 11 11 19 24 17 7 7 21 32 26 27 41 20 27 16 17 24 26 29 29 16 54 17 10 15 15 5 6 14 17 26 29
44 44 44 44 45 46 45 43 42 40 38 32 24 18 13 5 1 9 19 17 15 9 11 36 31 26 34 31 14 36 28 30 21 13 44 9 6 9 17 12 19 24 7 8 13 22 12
45 45 46 46 47 48 47 46 45 43 38 32 24 17 12 14 12 9 8 6 11 7 12 42 44 38 34 34 46 25 36 37 22 37 15 34 16 16 18 17 14 14 5 13 18 24 17
47 48 48 49 49 50 51 50 49 44 40 30 22 16 15 15 21 18 8 5 10 16 10 24 25 32 36 45 30 49 19 39 34 32 38 46 44 28 21 12 9 9 19 22 22 16 14
49 50 52 53 53 54 55 55 52 46 39 27 21 17 21 22 8 11 13 12 17 17 27 30 38 42 41 37 29 40 36 22 31 27 36 32 32 34 19 24 15 18 28 6 12 3 19
51 54 55 57 57 56 58 61 56 48 35 25 17 17 24 33 19 20 16 22 29 19 23 30 34 41 37 37 37 41 47 37 53 54 29 25 13 30 20 23 17 21 32 14 10 12 6
54 57 58 59 59 60 62 63 59 47 34 14 8 14 15 20 23 26 28 23 15 15 21 26 34 29 32 32 22 38 43 44 50 49 42 22 22 12 7 16 22 11 15 24 26 5 9
56 59 61 61 61 62 65 66 60 44 21 11 24 18 15 19 23 16 19 34 7 20 9 12 25 24 27 33 25 32 33 33 33 34 33 31 9 16 26 17 26 32 22 11 11 7 12
58 60 62 63 63 65 67 68 57 36 6 26 25 21 4 23 22 21 20 8 7 9 10 14 15 25 32 34 32 28 19 22 27 34 30 35 21 8 17 28 6 18 24 23 17 22 19
59 61 64 66 67 68 68 69 52 21 19 20 13 8 14 27 21 30 24 4 7 5 7 9 14 20 5 3 20 24 31 17 8 26 41 34 21 25 31 13 17 22 14 32 15 18 27
60 63 66 69 72 74 73 71 51 18 15 9 6 15 14 22 14 19 17 11 10 9 4 6 8 10 10 9 7 15 1 22 5 15 16 28 23 26 25 25 24 20 26 30 12 23 11
60 64 68 71 75 79 79 75 58 22 8 4 12 9 16 27 31 28 24 25 19 7 3 11 16 10 14 17 7 5 15 8 10 14 16 14 27 38 20 21 30 19 35 15 29 8 18
60 63 67 72 77 82 84 80 75 34 7 5 8 11 8 19 17 20 2 4 16 9 4 5 7 12 18 20 17 13 7 17 17 9 10 19 34 35 34 36 34 37 57 12 21 26 8
58 61 65 70 75 80 84 86 79 58 28 18 15 14 7 9 8 16 8 4 14 8 12 11 13 17 13 16 17 18 14 12 11 18 24 24 29 20 30 30 34 35 27 30 14 17 23
58 60 62 66 72 78 81 82 82 77 52 24 19 12 14 6 5 17 12 12 8 10 6 12 15 19 14 14 24 28 26 26 26 18 29 25 21 27 30 31 22 29 33 28 16 21 19
59 60 62 64 67 72 76 78 77 74 63 39 29 14 15 5 11 17 13 7 11 11 15 16 15 15 14 31 38 41 36 33 27 26 26 28 30 20 25 32 9 51 20 25 15 39 17
61 61 63 64 66 68 71 72 73 67 61 39 41 17 13 7 9 6 17 15 16 9 15 13 13 16 29 32 24 30 27 34 33 33 31 28 25 26 23 29 41 51 18 23 29 15 12
64 64 64 64 65 66 68 69 67 66 58 31 39 27 8 18 14 12 20 7 14 14 18 8 14 24 19 15 21 32 30 37 34 37 40 34 35 25 30 36 36 40 22 36 11 12 10
65 66 67 66 66 66 66 67 65 61 56 37 29 33 8 13 9 16 8 14 14 16 14 5 20 15 14 14 23 28 33 37 40 45 33 25 23 31 28 32 37 25 19 16 26 6 13
61 64 66 66 64 66 69 66 61 56 52 44 20 33 12 11 4 8 8 11 15 10 11 23 16 8 15 14 17 20 24 24 21 34 30 33 27 27 30 39 44 26 9 14 19 23 18
61 60 64 66 65 67 71 69 60 52 43 37 17 27 13 5 11 7 5 3 1 5 14 17 13 7 12 9 4 9 13 16 18 24 23 22 16 15 16 11 20 24 24 22 20 19 17
Wind_Direction_850mb
6 5 3 2 3 1 360 358 358 356 355 354 356 356 358 358 354 350 331 274 223 194 189 180 187 183 173 225 60 126 159 159 162 141 213 230 238 272 49 309 186 322 89 137 108 198 107
1 360 358 356 357 355 355 354 351 352 349 349 350 353 355 359 353 358 347 246 198 172 169 172 179 177 199 229 104 114 149 159 174 181 213 249 15 357 276 336 314 51 146 143 150 131 111
359 356 353 351 349 349 350 351 347 346 344 342 343 347 352 357 355 2 20 151 159 153 157 166 171 177 244 83 160 176 156 153 175 204 194 236 299 301 311 204 82 212 163 153 148 174 148
356 353 351 348 347 348 347 346 344 339 338 338 338 340 347 351 359 8 47 142 140 139 147 152 161 169 73 124 147 152 165 170 187 209 262 281 304 291 264 327 188 212 208 147 139 164 143
357 355 353 350 349 349 349 345 340 335 333 336 333 334 340 343 357 41 77 127 133 132 138 143 139 202 126 143 155 160 175 197 227 250 267 276 287 262 257 235 190 149 264 134 125 192 149
359 357 355 353 350 348 346 344 337 331 329 332 328 324 328 333 341 161 121 112 122 124 132 141 182 225 179 184 168 166 186 229 232 276 257 241 241 244 227 28 262 29 94 88 127 161 221
0 358 356 354 350 346 342 341 334 328 326 326 324 319 315 315 294 198 160 129 128 169 203 229 186 255 151 144 146 161 169 166 207 192 235 207 270 5 296 5 352 292 283 170 125 142 204
1 359 357 354 349 345 343 339 333 329 323 323 322 314 304 291 262 225 203 216 3 27 176 206 136 143 151 153 144 147 174 210 206 174 230 256 351 228 354 305 237 206 206 155 123 171 240
1 0 358 356 352 348 345 340 335 329 322 321 318 310 297 286 260 247 219 218 287 290 223 177 191 178 171 168 162 127 193 212 258 207 230 66 263 311 281 249 226 190 337 146 163 193 222
3 2 360 357 353 349 345 341 336 329 321 319 312 303 283 274 80 203 227 241 238 284 258 158 185 194 179 199 148 144 180 209 195 256 276 168 306 325 294 326 337 101 27 247 209 214 122
6 4 1 358 353 348 344 341 336 328 320 315 303 291 251 205 183 199 167 205 214 229 258 149 178 188 186 206 143 162 208 223 243 252 279 277 242 336 304 14 343 56 268 250 233 257 233
7 6 4 359 353 348 344 341 336 330 321 312 294 276 231 219 221 193 218 218 176 232 143 148 143 179 179 216 177 125 157 217 251 268 273 270 276 274 272 312 299 309 236 228 223 244 33
9 7 3 0 356 351 347 342 338 332 323 305 286 252 217 192 172 205 202 210 230 246 132 148 165 177 191 193 189 168 182 246 246 222 241 248 239 233 211 255 189 238 240 241 218 165 235
10 7 4 1 357 354 348 343 340 334 322 304 274 229 207 192 204 185 190 230 245 103 186 146 172 172 196 186 202 182 181 188 234 250 275 269 198 196 165 246 276 201 284 262 292 343 153
11 8 5 2 359 357 352 344 343 337 326 304 204 186 171 196 199 182 216 230 286 189 117 160 173 185 197 205 204 200 211 205 218 212 245 242 172 226 207 250 249 235 252 308 295 207 232
12 10 7 5 3 1 355 348 347 340 337 150 129 148 150 180 161 175 235 257 104 40 324 247 178 197 194 185 206 193 204 223 232 214 227 260 236 196 157 228 244 270 341 266 333 358 11
13 12 9 9 8 7 3 354 353 351 80 146 138 185 169 171 172 216 235 216 110 124 286 268 247 183 217 176 193 215 217 215 212 216 201 244 253 171 184 212 306 200 230 226 172 176 242
16 15 13 12 13 12 10 2 0 19 129 148 250 150 163 158 199 218 235 82 44 292 185 296 313 324 345 174 192 221 220 247 60 240 206 217 241 233 221 172 200 309 321 279 243 312 342
19 18 16 16 16 17 16 11 10 32 164 199 250 108 167 175 229 197 237 213 264 280 70 305 294 308 22 307 262 236 220 61 109 241 206 212 234 257 247 208 182 233 255 268 282 272 259
21 19 19 19 19 19 21 19 17 32 134 209 275 148 154 212 270 277 201 223 181 181 270 306 315 262 282 218 219 178 207 117 192 245 358 302 234 247 266 40 360 324 267 266 292 309 23
21 20 20 21 20 20 22 24 25 25 89 63 321 36 26 197 216 256 345 40 243 188 233 289 213 342 321 291 197 113 337 144 185 149 231 246 252 267 273 122 234 251 244 246 231 303 41
22 21 21 21 21 21 22 23 27 31 62 44 6 339 321 18 152 251 141 130 335 76 318 126 343 337 343 38 6 16 332 287 154 175 230 233 269 286 287 297 203 239 271 219 234 276 287
22 19 19 19 20 21 22 23 25 29 47 44 15 352 306 131 255 254 51 44 23 331 135 49 339 311 259 43 323 306 298 294 290 288 291 242 237 257 271 280 290 231 251 236 271 248 285
21 18 17 17 18 20 22 23 24 26 31 35 16 346 303 90 7 19 2 326 338 350 319 332 340 326 17 320 301 264 257 259 258 262 252 273 283 271 272 276 141 280 71 1 127 257 339
19 18 16 15 15 15 17 20 21 23 23 38 17 29 352 350 338 108 351 338 294 257 262 312 329 312 311 301 280 266 242 222 231 239 244 237 255 275 272 274 282 213 202 223 241 97 48
18 16 14 14 13 13 12 13 15 17 19 31 15 19 356 313 56 346 321 338 332 334 277 209 315 313 301 277 270 259 256 269 263 232 207 240 244 243 254 265 239 268 75 354 315 252 47
18 16 13 12 11 9 9 7 8 9 13 19 4 15 8 314 39 0 6 341 328 300 282 291 342 310 262 265 253 253 256 252 253 261 253 221 235 258 243 255 269 29 80 200 227 116 102
12 10 8 7 6 4 3 2 2 4 5 13 5 8 31 322 50 6 352 336 321 328 317 3 284 198 275 269 259 268 257 262 280 273 272 270 276 249 238 255 248 10 291 306 96 106 90
4 5 3 2 2 360 359 360 359 358 0 3 353 349 356 322 320 288 265 276 271 318 323 316 321 293 356 289 280 307 280 267 273 269 250 256 302 318 328 21 46 39 55 58 68 92 87